Date,TemperatureHighF,TemperatureAvgF,TemperatureLowF,DewpointHighF,DewpointAvgF,DewpointLowF,HumidityHigh,HumidityAvg,HumidityLow,PressureMaxIn,PressureMinIn,WindSpeedMaxMPH,WindSpeedAvgMPH,GustSpeedMaxMPH,PrecipitationSumIn
2013-1-1,79,73,66,65,61,59,84,68,57,30.19,30.04,11,2,0,0.00
2013-1-2,83,72,61,69,64,59,97,80,52,30.08,29.98,5,1,0,0.00
2013-1-3,85,74,67,70,67,65,94,81,57,30.12,30.01,8,1,0,0.00
2013-1-4,85,72,65,72,68,64,97,87,62,30.22,30.09,5,1,0,0.00
2013-1-5,75,69,66,70,67,65,97,93,82,30.24,30.14,7,1,0,0.05
2013-1-6,82,73,65,73,69,64,98,88,71,30.17,30.05,10,2,0,0.05
2013-1-7,73,70,66,71,68,66,97,94,89,30.15,30.06,0,0,0,0.24
2013-1-8,82,75,69,74,71,68,97,88,71,30.18,30.06,0,0,0,0.06
2013-1-9,82,77,73,73,71,70,95,83,73,30.27,30.14,0,0,0,0.00
2013-1-10,80,76,73,70,68,65,83,75,61,30.28,30.17,0,0,0,0.00
2013-1-11,80,76,72,72,68,67,87,79,70,30.24,30.14,0,0,0,0.02
2013-1-12,81,74,67,70,68,65,92,80,64,30.17,30.08,0,0,0,0.05
2013-1-13,81,75,67,69,66,65,93,75,62,30.12,30.06,0,0,0,0.00
2013-1-14,80,74,66,67,65,62,88,75,61,30.16,30.11,0,0,0,0.00
2013-1-15,79,74,66,69,67,64,93,80,68,30.12,30.04,0,0,0,0.01
2013-1-16,82,72,63,70,67,62,96,84,65,30.09,30.00,0,0,0,0.00
2013-1-17,82,71,61,73,66,54,98,85,69,30.08,29.96,10,1,0,0.04
2013-1-18,72,63,52,60,54,46,83,72,62,30.22,30.08,13,3,0,0.00
2013-1-19,70,68,64,68,64,59,97,88,68,30.20,30.08,5,0,0,0.21
2013-1-20,81,70,63,70,66,63,98,87,64,30.13,30.00,6,1,0,0.00
2013-1-21,81,72,65,71,67,64,98,87,67,30.05,29.94,7,1,0,0.01
2013-1-22,76,68,62,64,59,53,96,76,59,30.20,29.99,11,3,0,0.00
2013-1-23,74,66,59,59,56,53,87,69,51,30.29,30.19,8,2,0,0.00
2013-1-24,77,65,57,55,53,44,89,68,42,30.28,30.19,4,1,0,0.00
2013-1-25,77,66,56,60,56,51,87,72,50,30.28,30.16,6,1,0,0.00
2013-1-26,79,67,57,61,58,53,95,76,47,30.24,30.15,6,1,0,0.00
2013-1-27,78,70,60,64,61,58,93,75,52,30.27,30.19,12,2,0,0.00
2013-1-28,80,74,71,68,65,62,82,72,59,30.30,30.21,12,3,0,0.00
2013-1-29,79,74,68,70,67,65,93,81,72,30.21,30.11,9,3,0,0.00
2013-1-30,81,74,71,68,66,64,90,76,63,30.10,29.95,15,4,0,0.00
2013-1-31,71,66,57,70,59,43,96,79,53,30.18,29.93,9,2,0,0.00
2013-2-1,73,61,51,56,49,39,79,65,54,30.26,30.15,10,3,0,0.00
2013-2-2,75,63,53,55,50,39,90,64,44,30.25,30.11,7,1,0,0.00
2013-2-3,74,62,54,55,49,38,93,66,28,30.16,30.05,7,1,0,0.00
2013-2-4,77,62,49,56,49,42,92,66,32,30.14,30.02,7,1,0,0.00
2013-2-5,79,66,54,64,59,53,96,79,52,30.07,29.99,5,1,0,0.00
2013-2-6,79,69,60,67,61,-100,97,79,63,30.09,30.01,5,-10,0,0.00
2013-2-7,82,73,65,67,65,62,90,75,54,30.06,29.93,9,2,0,0.00
2013-2-8,82,73,67,70,68,65,95,82,63,30.02,29.89,4,1,0,0.00
2013-2-9,78,70,63,68,64,60,97,80,64,30.16,30.01,10,2,0,0.00
2013-2-10,74,71,68,64,62,59,77,73,68,30.25,30.14,13,4,0,0.00
2013-2-11,79,73,68,67,64,61,84,75,64,30.21,30.10,10,3,0,0.00
2013-2-12,88,74,63,71,66,62,97,80,44,30.10,29.96,9,2,0,0.00
2013-2-13,88,77,68,72,70,66,96,80,53,30.00,29.87,8,1,0,0.00
2013-2-14,80,70,62,72,67,61,96,92,75,30.00,29.85,11,2,0,1.58
2013-2-15,72,66,63,68,64,62,97,94,82,30.01,29.92,4,1,0,0.31
2013-2-16,72,65,54,64,57,46,97,78,46,30.07,29.86,15,3,0,0.00
2013-2-17,58,51,44,46,30,18,73,47,25,30.30,30.07,10,4,0,0.00
2013-2-18,70,59,45,57,45,33,72,61,48,30.31,30.20,12,3,0,0.00
2013-2-19,78,70,58,67,61,53,92,73,62,30.19,30.07,12,3,0,0.03
2013-2-20,79,70,63,68,65,60,98,84,56,30.11,30.00,6,1,0,0.01
2013-2-21,81,72,64,69,66,63,97,81,61,30.08,29.98,9,2,0,0.00
2013-2-22,82,76,70,72,70,66,90,83,70,30.09,30.00,11,4,0,0.00
2013-2-23,84,76,70,73,71,68,96,83,67,30.03,29.90,11,4,0,0.55
2013-2-24,91,77,70,75,71,66,97,82,46,29.99,29.88,9,1,0,0.01
2013-2-25,85,76,69,74,71,67,95,85,65,29.90,29.80,12,3,0,0.05
2013-2-26,88,79,74,73,71,69,92,77,56,29.88,29.79,10,3,0,0.00
2013-2-27,77,70,64,74,66,62,96,87,68,29.95,29.85,6,1,0,0.63
2013-2-28,70,64,59,64,55,50,95,75,50,29.99,29.90,7,1,0,0.00
2013-3-1,64,62,58,58,52,47,84,72,60,29.98,29.89,5,1,0,0.00
2013-3-2,65,58,51,49,43,36,76,59,43,30.03,29.95,13,4,0,0.00
2013-3-3,61,54,49,47,43,40,88,68,50,30.14,29.95,8,2,0,0.00
2013-3-4,68,54,42,47,37,29,85,57,26,30.20,30.11,12,2,0,0.00
2013-3-5,78,63,48,58,53,45,93,72,47,30.17,30.07,10,2,0,0.00
2013-3-6,78,65,52,64,52,31,94,68,31,30.09,29.94,15,2,0,0.01
2013-3-7,73,58,46,56,45,36,90,63,40,30.18,30.06,7,2,0,0.00
2013-3-8,76,62,51,54,51,44,93,69,32,30.20,30.09,5,1,0,0.00
2013-3-9,76,64,53,58,54,50,92,70,50,30.18,30.09,8,2,0,0.00
2013-3-10,76,70,64,61,57,53,74,63,52,30.14,30.06,9,3,0,0.00
2013-3-11,78,72,68,63,61,59,78,69,54,30.10,29.95,11,3,0,0.00
2013-3-12,82,74,70,70,66,62,87,76,63,29.99,29.90,11,2,0,0.00
2013-3-13,75,66,56,66,55,44,93,70,35,30.11,29.97,10,2,0,0.00
2013-3-14,72,61,53,54,47,39,89,64,32,30.20,30.08,10,3,0,0.00
2013-3-15,73,62,51,55,50,45,82,66,42,30.25,30.14,5,2,0,0.00
2013-3-16,76,65,53,58,54,52,97,71,45,30.19,30.08,7,2,0,0.00
2013-3-17,77,68,57,62,59,55,94,75,54,30.14,30.02,12,2,0,0.00
2013-3-18,80,72,64,70,66,61,96,82,67,30.06,29.95,12,3,0,0.25
2013-3-19,80,73,68,70,68,66,96,85,66,30.00,29.80,9,1,0,0.00
2013-3-20,87,73,64,70,65,60,98,79,49,29.96,29.80,5,1,0,0.00
2013-3-21,75,67,58,62,54,39,93,67,28,29.94,29.82,6,2,0,0.00
2013-3-22,76,68,55,70,60,54,96,79,58,30.00,29.89,14,3,0,0.01
2013-3-23,89,78,71,75,72,69,97,83,54,29.98,29.79,15,2,0,0.03
2013-3-24,90,80,72,74,72,67,96,79,55,29.88,29.68,9,3,0,0.02
2013-3-25,78,73,64,73,60,43,95,68,37,29.98,29.74,8,2,0,0.01
2013-3-26,66,60,52,45,39,34,68,48,33,30.20,29.98,10,4,0,0.00
2013-3-27,69,57,45,48,42,35,80,59,36,30.25,30.16,9,2,0,0.00
2013-3-28,74,60,48,51,45,36,84,61,31,30.26,30.16,8,2,0,0.00
2013-3-29,75,64,54,54,50,45,76,61,44,30.28,30.19,7,1,0,0.00
2013-3-30,76,66,56,57,53,47,93,65,39,30.26,30.16,6,1,0,0.00
2013-3-31,81,70,59,67,62,55,94,75,56,30.18,30.04,10,3,0,0.00
2013-4-1,89,77,68,72,67,63,93,73,41,30.05,29.93,8,2,0,0.00
2013-4-2,86,73,66,68,66,64,97,79,50,30.07,29.98,8,1,0,0.00
2013-4-3,84,76,68,70,68,66,93,78,60,30.05,29.98,9,3,0,0.00
2013-4-4,84,75,69,74,70,67,95,84,70,30.04,29.89,15,3,0,0.86
2013-4-5,72,68,65,71,66,63,97,92,85,29.98,29.81,7,1,0,0.52
2013-4-6,77,68,58,66,61,57,95,80,60,30.07,29.92,15,2,0,0.01
2013-4-7,77,73,69,65,63,62,80,71,63,30.12,30.01,12,2,0,0.00
2013-4-8,82,73,62,65,62,59,95,71,45,30.12,30.04,7,1,0,0.00
2013-4-9,81,75,69,69,67,65,87,76,61,30.14,30.04,9,2,0,0.00
2013-4-10,84,78,72,73,70,66,85,78,67,30.09,29.98,12,4,0,0.00
2013-4-11,84,78,74,74,72,71,89,81,70,30.01,29.89,15,5,0,0.00
2013-4-12,87,79,74,78,74,70,91,85,70,29.94,29.85,10,4,0,2.91
2013-4-13,87,76,72,76,73,69,95,89,69,29.96,29.87,7,1,0,0.16
2013-4-14,86,79,72,76,74,70,97,84,65,29.96,29.88,15,3,0,0.01
2013-4-15,88,78,70,77,73,69,96,87,68,30.05,29.91,12,2,0,1.24
2013-4-16,86,78,70,76,73,69,97,85,68,30.11,30.01,12,2,0,0.01
2013-4-17,84,78,72,71,69,68,91,76,61,30.10,30.01,8,2,0,0.00
2013-4-18,86,80,73,74,71,68,87,76,61,30.05,29.97,9,3,0,0.00
2013-4-19,88,80,77,75,69,-100,92,74,57,30.04,29.95,14,-16,0,0.01
2013-4-20,91,79,73,77,73,70,96,85,57,30.07,29.94,7,1,0,0.92
2013-4-21,85,77,71,75,72,70,96,85,68,30.08,29.97,11,2,0,0.00
2013-4-22,86,75,70,72,70,68,94,85,58,30.04,29.91,11,1,0,0.45
2013-4-23,83,75,67,70,66,62,96,76,58,30.08,29.94,12,3,0,0.01
2013-4-24,84,76,67,67,64,61,88,67,51,30.12,30.02,11,2,0,0.00
2013-4-25,83,76,68,65,63,61,83,65,50,30.18,30.06,8,2,0,0.00
2013-4-26,83,75,65,67,65,62,91,71,56,30.21,30.10,12,2,0,0.00
2013-4-27,82,76,69,68,65,62,80,67,52,30.19,30.07,10,3,0,0.00
2013-4-28,83,77,72,67,64,63,75,66,54,30.11,29.98,11,3,0,0.00
2013-4-29,83,77,73,72,69,63,85,74,64,30.02,29.92,11,4,0,0.00
2013-4-30,85,76,71,73,71,68,95,83,59,29.98,29.91,8,1,0,0.13
2013-5-1,86,75,70,74,71,69,97,87,65,29.99,29.91,8,1,0,0.32
2013-5-2,79,70,67,74,68,-100,98,93,84,29.93,29.78,8,-8,0,1.27
2013-5-3,87,75,68,73,70,67,97,84,56,29.80,29.67,6,1,0,0.24
2013-5-4,88,77,68,71,69,66,97,78,53,29.79,29.68,8,2,0,0.01
2013-5-5,81,73,65,68,63,54,94,72,40,29.92,29.75,13,2,0,0.00
2013-5-6,86,72,60,65,62,58,96,72,45,30.00,29.90,5,1,0,0.00
2013-5-7,86,73,62,65,61,58,91,67,41,30.05,29.96,8,1,0,0.00
2013-5-8,89,75,62,67,61,56,93,65,33,30.12,30.03,6,1,0,0.00
2013-5-9,88,77,65,74,68,61,88,74,52,30.13,30.05,9,1,0,0.00
2013-5-10,90,81,73,75,73,70,94,77,53,30.12,30.00,12,2,0,0.00
2013-5-11,88,80,74,77,74,70,97,83,64,30.06,29.97,13,3,0,0.20
2013-5-12,92,79,71,76,72,69,97,83,51,30.05,29.93,7,1,0,0.59
2013-5-13,86,78,71,73,70,66,98,78,55,30.08,29.98,7,1,0,0.01
2013-5-14,82,76,69,67,62,57,86,64,47,30.16,30.05,11,2,0,0.00
2013-5-15,82,75,67,66,62,59,83,64,46,30.18,30.08,10,2,0,0.00
2013-5-16,84,76,66,65,63,59,91,65,50,30.10,30.03,12,2,0,0.00
2013-5-17,89,77,69,73,70,64,92,78,53,30.08,30.00,10,1,0,0.01
2013-5-18,86,79,73,76,73,70,97,82,68,30.09,30.02,11,2,0,0.00
2013-5-19,87,79,72,72,70,67,94,74,52,30.09,29.99,9,2,0,0.00
2013-5-20,80,75,70,75,72,68,96,90,80,30.07,29.96,7,1,0,5.35
2013-5-21,84,76,70,75,72,69,97,85,65,30.04,29.92,13,2,0,0.06
2013-5-22,88,76,71,76,72,69,95,87,65,29.96,29.88,12,1,0,0.81
2013-5-23,92,82,73,76,73,69,97,78,47,30.00,29.90,5,1,0,0.01
2013-5-24,93,83,75,77,74,66,97,76,48,30.04,29.93,6,1,0,0.00
2013-5-25,86,80,75,75,69,65,91,69,52,30.15,30.03,11,3,0,0.00
2013-5-26,84,78,70,69,66,61,85,67,57,30.16,30.09,9,2,0,0.00
2013-5-27,84,79,74,73,70,64,90,76,67,30.14,30.06,15,3,0,0.02
2013-5-28,83,78,75,74,73,71,91,83,73,30.10,30.03,15,4,0,0.03
2013-5-29,82,75,71,74,70,-100,96,87,77,30.09,30.02,18,-7,0,0.22
2013-5-30,83,78,72,75,73,69,94,83,74,30.06,29.99,23,5,0,0.18
2013-5-31,83,78,75,76,74,71,94,86,76,30.05,29.99,18,4,0,0.33
2013-6-1,85,77,74,77,75,72,96,91,75,30.01,29.95,10,1,0,1.09
2013-6-2,91,80,72,78,74,72,98,85,62,29.99,29.91,8,1,0,0.03
2013-6-3,88,79,73,77,74,72,97,86,65,30.02,29.90,6,1,0,1.30
2013-6-4,86,79,74,77,75,73,97,88,65,30.04,29.94,6,1,0,0.10
2013-6-5,84,81,79,78,76,75,91,87,78,30.01,29.89,6,2,0,0.04
2013-6-6,89,80,74,79,76,72,96,87,72,29.90,29.77,19,4,0,1.28
2013-6-7,92,78,74,79,74,73,97,88,61,29.98,29.83,6,1,0,0.91
2013-6-8,89,78,74,80,74,-100,97,89,74,30.09,29.95,9,-10,0,0.19
2013-6-9,88,82,78,77,76,74,94,81,66,30.10,30.02,14,3,0,0.00
2013-6-10,90,84,79,78,76,75,88,80,67,30.08,30.00,11,2,0,0.00
2013-6-11,90,82,77,80,77,75,95,86,64,30.09,30.00,6,1,0,0.94
2013-6-12,90,80,75,79,76,72,97,89,65,30.07,30.00,4,0,0,0.36
2013-6-13,92,80,74,80,75,72,98,85,58,30.04,29.93,5,0,0,0.17
2013-6-14,95,82,74,77,74,71,96,77,49,29.96,29.87,8,1,0,0.00
2013-6-15,92,83,75,77,75,72,96,78,55,30.04,29.92,9,1,0,0.00
2013-6-16,92,84,75,78,76,74,96,79,57,30.08,30.01,7,2,0,0.00
2013-6-17,93,85,77,78,76,75,94,76,58,30.07,30.00,8,2,0,0.00
2013-6-18,92,85,77,77,76,74,95,76,58,30.06,29.97,10,2,0,0.00
2013-6-19,93,84,78,79,76,74,94,77,56,30.04,29.97,9,2,0,0.00
2013-6-20,94,82,75,77,74,69,89,76,54,30.08,30.01,8,2,0,0.00
2013-6-21,92,84,76,77,74,72,93,75,54,30.10,30.02,11,2,0,0.00
2013-6-22,91,84,77,76,74,72,92,73,57,30.09,30.03,9,2,0,0.00
2013-6-23,89,84,78,77,74,72,86,75,60,30.12,30.04,13,3,0,0.00
2013-6-24,90,83,75,76,74,72,94,76,62,30.15,30.07,15,3,0,0.02
2013-6-25,90,83,77,78,76,73,90,78,64,30.12,30.03,12,3,0,0.00
2013-6-26,91,83,77,78,76,74,93,78,58,30.07,30.00,9,2,0,0.09
2013-6-27,89,82,77,78,76,73,92,81,67,30.05,29.95,9,1,0,0.10
2013-6-28,93,82,73,79,75,70,96,81,58,29.99,29.85,10,2,0,0.18
2013-6-29,95,80,74,78,72,-100,96,84,51,29.91,29.81,8,-10,0,0.04
2013-6-30,91,80,74,78,75,72,95,86,63,29.94,29.84,10,1,0,1.73
2013-7-1,89,82,77,78,76,71,95,83,66,30.03,29.91,15,3,0,0.00
2013-7-2,90,83,78,79,77,73,94,82,68,30.10,29.97,10,3,0,0.01
2013-7-3,88,82,78,79,76,73,92,81,67,30.12,30.04,14,4,0,0.06
2013-7-4,89,83,76,78,76,72,93,79,67,30.15,30.06,13,4,0,0.04
2013-7-5,84,80,76,78,76,73,96,87,77,30.13,30.04,14,2,0,1.04
2013-7-6,88,83,79,77,75,74,87,79,66,30.10,30.02,12,4,0,0.13
2013-7-7,88,83,79,78,76,74,87,78,66,30.09,30.02,11,3,0,0.03
2013-7-8,90,83,78,76,74,73,87,76,60,30.13,30.06,8,2,0,0.00
2013-7-9,89,82,75,76,74,70,93,77,59,30.13,30.04,9,1,0,0.00
2013-7-10,86,79,72,76,74,70,96,85,69,30.08,29.99,9,1,0,0.24
2013-7-11,92,82,76,78,75,72,95,79,52,30.03,29.93,9,1,0,0.00
2013-7-12,93,81,76,78,75,71,96,82,56,29.96,29.89,5,1,0,0.46
2013-7-13,88,76,73,77,73,71,97,91,66,30.02,29.91,5,1,0,1.64
2013-7-14,90,79,72,76,74,71,96,85,60,30.08,29.98,13,2,0,0.27
2013-7-15,90,80,73,77,74,71,97,81,56,30.08,30.00,7,1,0,0.02
2013-7-16,84,78,72,76,72,70,94,83,66,30.13,30.04,17,3,0,0.24
2013-7-17,82,76,73,76,73,71,96,90,77,30.14,30.03,8,1,0,0.97
2013-7-18,87,77,72,78,74,70,97,90,74,30.12,30.04,11,2,0,0.60
2013-7-19,89,81,74,80,76,73,97,86,67,30.12,30.03,12,2,0,0.00
2013-7-20,86,81,76,80,77,74,96,88,78,30.10,30.03,9,2,0,0.34
2013-7-21,91,81,75,80,77,73,97,87,68,30.14,30.04,8,1,0,0.02
2013-7-22,92,84,76,78,76,73,94,78,57,30.13,30.06,8,2,0,0.00
2013-7-23,97,85,76,79,76,72,95,74,46,30.10,29.96,7,1,0,0.00
2013-7-24,96,85,77,78,75,70,94,73,52,30.02,29.90,5,1,0,0.00
2013-7-25,94,85,76,77,76,73,94,75,55,30.01,29.91,6,1,0,0.00
2013-7-26,94,83,78,78,76,74,92,80,56,30.02,29.93,7,1,0,0.00
2013-7-27,93,80,75,79,76,74,96,88,60,30.01,29.92,9,1,0,1.02
2013-7-28,87,79,74,79,74,-100,97,88,75,30.06,29.94,4,-10,0,0.24
2013-7-29,91,82,76,79,77,74,96,85,65,30.13,30.01,6,1,0,0.00
2013-7-30,91,84,74,80,77,72,96,80,66,30.15,30.07,8,2,0,1.71
2013-7-31,91,84,78,79,76,73,93,77,61,30.10,30.00,19,2,0,0.00
2013-8-1,89,83,78,77,75,74,88,77,62,30.05,29.93,8,2,0,0.00
2013-8-2,93,82,77,78,74,70,94,78,56,30.05,29.91,4,1,0,0.00
2013-8-3,87,78,72,79,75,70,95,89,75,30.15,30.01,7,0,0,0.79
2013-8-4,97,83,76,79,76,73,96,80,50,30.09,29.97,5,0,0,0.03
2013-8-5,91,82,76,80,76,73,95,84,64,30.03,29.94,4,1,0,0.03
2013-8-6,96,83,76,79,76,72,96,82,57,29.97,29.88,7,1,0,0.00
2013-8-7,91,84,77,79,76,75,95,79,62,29.97,29.89,9,2,0,0.00
2013-8-8,91,85,81,78,76,74,85,75,58,30.01,29.92,13,3,0,0.00
2013-8-9,90,83,78,78,75,71,88,77,64,30.05,29.94,13,3,0,0.10
2013-8-10,92,85,79,78,76,74,88,76,60,30.11,30.02,11,3,0,0.00
2013-8-11,92,86,81,78,77,75,86,75,62,30.12,30.05,12,2,0,0.00
2013-8-12,91,84,77,77,76,73,93,77,60,30.10,30.00,9,1,0,0.00
2013-8-13,93,85,79,79,76,74,91,75,54,30.04,29.95,11,2,0,0.00
2013-8-14,93,84,76,78,75,74,95,77,57,30.02,29.92,8,2,0,0.00
2013-8-15,90,82,76,78,76,73,93,83,65,30.05,29.95,8,2,0,0.00
2013-8-16,92,85,79,80,78,75,92,79,60,30.04,29.97,9,2,0,0.00
2013-8-17,92,86,81,80,78,76,90,79,64,30.07,29.99,8,2,0,0.00
2013-8-18,90,85,81,80,78,76,86,79,67,30.07,29.99,10,3,0,0.05
2013-8-19,91,85,80,79,78,76,89,78,64,30.06,29.96,9,2,0,0.00
2013-8-20,91,84,76,78,76,72,94,78,58,30.05,29.97,13,2,0,0.19
2013-8-21,90,84,80,80,78,76,91,82,68,30.07,29.99,12,3,0,0.09
2013-8-22,92,85,76,80,77,73,93,79,66,30.05,29.95,11,2,0,0.02
2013-8-23,91,83,79,80,77,75,90,81,65,30.01,29.93,9,1,0,0.17
2013-8-24,93,82,74,79,72,-100,95,77,56,30.11,29.96,16,-19,0,0.98
2013-8-25,88,81,75,79,76,73,96,85,69,30.14,30.02,6,1,0,0.12
2013-8-26,90,80,73,79,75,71,95,84,64,30.11,30.00,10,1,0,0.32
2013-8-27,87,79,73,76,74,71,96,84,61,30.04,29.96,5,0,0,0.01
2013-8-28,89,80,74,78,75,71,95,85,62,30.03,29.94,7,1,0,0.38
2013-8-29,92,82,73,78,75,70,96,80,61,30.02,29.92,11,2,0,0.03
2013-8-30,93,84,76,78,75,73,96,76,52,30.00,29.89,8,1,0,0.00
2013-8-31,91,80,74,80,73,-100,95,83,62,29.97,29.90,7,-10,0,0.23
2013-9-1,91,80,74,79,76,73,97,87,63,29.99,29.92,6,1,0,0.01
2013-9-2,95,79,74,80,76,72,98,89,56,30.03,29.93,6,0,0,1.50
2013-9-3,91,81,73,80,76,72,98,85,61,30.02,29.92,5,0,0,0.02
2013-9-4,87,82,78,80,78,76,94,86,77,30.06,29.94,6,1,0,0.00
2013-9-5,93,85,79,80,78,76,94,80,62,30.06,29.98,8,2,0,0.00
2013-9-6,94,85,78,80,77,74,95,79,54,30.03,29.91,7,1,0,0.09
2013-9-7,88,78,74,79,75,71,95,88,66,29.97,29.89,6,1,0,0.22
2013-9-8,91,79,73,79,75,72,97,89,64,29.94,29.85,6,0,0,0.44
2013-9-9,89,82,74,78,75,72,97,80,63,29.99,29.89,11,2,0,0.01
2013-9-10,88,82,76,79,76,74,94,83,68,30.03,29.94,12,2,0,0.49
2013-9-11,83,78,75,77,75,73,95,89,79,30.05,29.95,6,1,0,1.63
2013-9-12,86,80,76,78,76,73,96,87,72,30.00,29.88,7,0,0,0.00
2013-9-13,94,83,74,80,76,73,97,80,54,29.89,29.80,7,1,0,0.35
2013-9-14,93,84,76,80,76,73,97,77,52,29.96,29.81,6,1,0,0.00
2013-9-15,88,81,77,80,76,70,93,86,73,30.04,29.91,8,1,0,0.10
2013-9-16,86,80,73,79,77,70,97,89,79,30.04,29.95,6,1,0,0.98
2013-9-17,82,79,76,77,76,74,97,89,82,30.03,29.90,8,1,0,0.66
2013-9-18,88,80,75,78,75,73,95,86,65,30.00,29.90,8,1,0,0.13
2013-9-19,89,80,74,78,75,72,97,85,69,29.99,29.91,8,2,0,0.37
2013-9-20,88,80,72,75,72,69,95,76,57,29.98,29.89,7,1,0,0.00
2013-9-21,89,80,72,75,73,71,95,79,62,29.91,29.77,8,1,0,0.00
2013-9-22,94,84,76,78,75,72,95,77,48,29.86,29.75,5,1,0,0.00
2013-9-23,88,81,77,80,77,75,96,89,71,29.96,29.85,11,0,0,0.22
2013-9-24,95,81,75,82,76,73,98,85,57,29.96,29.86,6,1,0,0.57
2013-9-25,90,81,74,80,75,72,95,84,60,29.91,29.79,9,1,0,0.00
2013-9-26,92,81,76,81,77,74,96,89,68,29.86,29.78,9,1,0,0.21
2013-9-27,91,81,74,77,74,68,97,81,48,29.91,29.81,7,1,0,0.00
2013-9-28,87,79,74,76,74,71,96,83,64,29.95,29.86,8,1,0,0.15
2013-9-29,89,80,72,75,72,70,97,78,57,29.95,29.87,7,1,0,0.00
2013-9-30,90,81,72,74,72,70,96,76,56,29.99,29.89,9,1,0,0.00
2013-10-1,88,82,75,76,73,71,91,75,61,30.02,29.94,11,2,0,0.00
2013-10-2,86,82,79,75,74,72,82,75,65,30.03,29.95,7,2,0,0.00
2013-10-3,88,82,77,76,74,72,86,77,63,30.04,29.94,7,1,0,0.00
2013-10-4,89,81,74,75,73,71,95,77,57,30.05,29.97,10,1,0,0.00
2013-10-5,90,78,72,75,68,-100,95,76,55,30.02,29.92,7,-20,0,0.00
2013-10-6,91,81,74,77,73,71,95,78,55,29.95,29.86,7,1,0,0.00
2013-10-7,93,80,73,76,73,71,95,83,51,29.89,29.80,7,1,0,0.51
2013-10-8,92,82,76,79,75,71,97,80,58,29.92,29.84,5,1,0,0.01
2013-10-9,85,78,72,77,73,70,94,86,73,29.98,29.89,12,2,0,0.00
2013-10-10,87,78,71,75,70,-100,96,79,61,30.00,29.93,9,2,0,0.00
2013-10-11,87,78,70,72,69,67,95,75,56,30.00,29.93,7,1,0,0.00
2013-10-12,87,77,68,71,69,66,95,77,54,30.02,29.94,5,1,0,0.00
2013-10-13,86,77,70,72,68,64,95,75,49,30.04,29.95,11,1,0,0.00
2013-10-14,86,76,70,71,66,-100,94,76,57,30.00,29.89,7,-20,0,0.00
2013-10-15,87,78,70,73,71,69,95,80,58,29.94,29.86,5,1,0,0.00
2013-10-16,87,77,71,73,70,69,95,80,58,29.94,29.88,6,1,0,0.00
2013-10-17,88,79,71,75,71,69,96,80,58,29.96,29.88,8,1,0,0.00
2013-10-18,88,80,71,75,72,70,96,80,61,29.98,29.89,6,1,0,0.00
2013-10-19,91,82,72,76,73,71,95,76,57,29.95,29.87,8,2,0,0.00
2013-10-20,90,82,76,78,76,74,96,82,59,29.95,29.86,6,1,0,0.00
2013-10-21,91,82,76,78,76,74,96,81,60,29.99,29.89,10,2,0,0.00
2013-10-22,93,83,75,78,76,74,96,80,58,29.95,29.82,6,1,0,0.00
2013-10-23,89,80,76,76,74,69,95,81,64,29.95,29.81,6,1,2,0.00
2013-10-24,81,76,71,70,66,63,83,71,63,30.08,29.92,7,2,0,0.00
2013-10-25,82,75,67,67,65,63,87,70,55,30.14,30.05,11,2,0,0.00
2013-10-26,84,74,66,67,64,63,89,74,51,30.14,30.04,6,1,0,0.00
2013-10-27,84,74,65,67,64,61,90,73,52,30.08,30.01,6,1,0,0.00
2013-10-28,85,75,65,69,66,62,95,75,47,30.13,30.04,7,1,0,0.00
2013-10-29,84,74,67,72,64,-100,94,75,59,30.16,30.08,13,-19,0,0.00
2013-10-30,84,79,73,70,68,66,81,69,59,30.18,30.07,13,2,0,0.00
2013-10-31,85,80,75,73,71,66,86,76,65,30.10,29.99,11,2,0,0.01
2013-11-1,88,81,74,75,73,71,89,78,62,30.00,29.87,8,2,0,0.00
2013-11-2,90,79,71,75,71,63,97,78,49,29.93,29.79,6,1,0,0.00
2013-11-3,81,74,68,66,63,61,87,70,57,30.01,29.88,9,3,0,0.00
2013-11-4,80,76,73,69,64,59,83,67,52,30.06,30.00,15,4,0,0.02
2013-11-5,82,79,77,72,69,66,82,72,62,30.08,30.00,15,6,0,0.00
2013-11-6,84,78,71,71,69,68,91,74,59,30.05,29.98,14,2,0,0.00
2013-11-7,86,76,69,73,70,67,96,81,57,30.00,29.91,4,1,0,0.00
2013-11-8,84,76,70,74,71,67,95,83,62,30.02,29.93,12,3,0,0.54
2013-11-9,78,76,73,73,72,71,94,87,81,30.10,30.00,13,4,0,0.25
2013-11-10,83,78,76,74,71,69,83,78,69,30.11,30.03,8,2,0,0.00
2013-11-11,83,76,70,72,69,67,92,78,67,30.11,30.04,11,2,0,0.00
2013-11-12,85,77,69,72,68,67,94,77,58,30.07,29.95,6,1,0,0.00
2013-11-13,76,72,69,68,64,56,87,76,64,30.20,29.98,10,4,0,0.00
2013-11-14,76,72,69,62,58,55,70,62,54,30.22,30.13,12,4,0,0.00
2013-11-15,81,77,73,70,67,62,76,73,65,30.13,30.02,13,4,0,0.00
2013-11-16,79,77,73,73,71,66,90,81,71,30.08,30.01,8,2,0,0.14
2013-11-17,84,78,72,74,71,69,92,79,66,30.07,29.99,12,2,0,0.00
2013-11-18,86,77,72,75,72,69,96,84,64,30.01,29.91,5,0,0,0.01
2013-11-19,86,75,72,75,72,70,96,89,65,29.93,29.84,5,1,0,0.10
2013-11-20,87,76,69,75,72,68,97,88,66,30.05,29.91,4,0,0,0.05
2013-11-21,82,76,72,75,73,70,97,91,79,30.12,30.03,8,2,0,2.14
2013-11-22,81,78,75,73,71,69,85,80,72,30.14,30.06,14,4,0,0.00
2013-11-23,82,77,72,72,71,69,90,82,71,30.07,29.96,11,2,0,0.00
2013-11-24,81,73,67,71,68,64,96,83,64,30.13,29.98,10,3,0,0.07
2013-11-25,76,73,72,69,65,60,87,76,68,30.19,30.04,19,5,0,0.02
2013-11-26,84,77,72,76,73,69,94,86,73,30.04,29.82,14,4,0,0.04
2013-11-27,78,71,58,75,65,52,97,82,58,30.10,29.77,10,3,0,0.51
2013-11-28,74,62,47,59,53,45,91,73,54,30.24,30.11,11,3,0,0.00
2013-11-29,78,69,58,63,60,56,93,74,54,30.26,30.17,14,2,0,0.00
2013-11-30,76,69,60,70,63,59,95,83,66,30.20,30.10,8,2,0,0.14
2013-12-1,80,68,61,71,66,60,98,93,70,30.09,29.93,6,1,0,1.92
2013-12-2,73,67,61,67,64,60,98,91,72,29.93,29.81,8,1,0,0.00
2013-12-3,80,68,60,66,60,-100,97,81,56,29.99,29.89,5,-20,0,0.00
2013-12-4,83,72,64,71,63,-100,98,80,59,30.08,29.98,6,-10,0,0.00
2013-12-5,83,74,65,72,69,64,98,84,67,30.15,30.07,9,2,0,0.00
2013-12-6,83,77,69,72,70,66,92,79,63,30.17,30.08,11,2,0,0.00
2013-12-7,84,73,66,73,69,65,96,87,61,30.21,30.12,6,1,0,0.01
2013-12-8,83,77,71,72,70,67,92,78,64,30.20,30.11,10,2,0,0.01
2013-12-9,84,77,70,71,69,64,92,75,53,30.18,30.09,9,3,0,0.00
2013-12-10,85,77,71,74,70,-100,95,82,67,30.15,30.07,6,1,0,0.00
2013-12-11,84,75,69,75,71,68,98,86,63,30.19,30.11,8,1,0,0.00
2013-12-12,79,71,65,71,66,60,97,85,70,30.21,30.12,9,2,0,0.01
2013-12-13,78,73,69,69,64,59,84,73,65,30.18,30.09,13,3,0,0.01
2013-12-14,82,77,73,73,71,69,92,81,70,30.10,29.98,13,4,0,0.06
2013-12-15,84,76,70,76,72,68,96,88,74,30.05,29.92,7,1,0,0.01
2013-12-16,74,67,61,67,62,58,92,81,67,30.14,30.03,5,2,0,0.01
2013-12-17,77,66,58,65,59,56,95,80,59,30.17,30.09,7,2,0,0.00
2013-12-18,76,65,59,60,58,56,95,78,55,30.23,30.13,5,2,0,0.00
2013-12-19,78,68,56,64,60,55,95,76,58,30.23,30.14,9,2,0,0.00
2013-12-20,80,75,69,71,67,62,81,76,69,30.18,30.09,11,2,0,0.00
2013-12-21,82,78,75,73,72,69,87,81,71,30.13,30.05,11,3,0,0.00
2013-12-22,83,78,76,74,72,71,89,82,70,30.15,30.07,13,4,0,0.00
2013-12-23,84,78,71,74,72,69,93,83,71,30.16,30.10,12,3,0,0.00
2013-12-24,82,71,67,73,66,-100,98,86,69,30.16,30.07,8,-9,0,0.00
2013-12-25,76,73,71,67,66,64,83,78,72,30.16,30.09,14,4,0,0.00
2013-12-26,78,75,72,71,69,67,87,83,76,30.15,30.05,6,2,0,0.00
2013-12-27,81,75,68,72,70,67,96,84,73,30.18,30.08,11,2,0,0.00
2013-12-28,79,76,72,73,71,68,90,84,79,30.16,30.01,15,4,0,0.02
2013-12-29,82,77,74,75,73,72,95,87,77,30.02,29.92,13,3,0,0.04
2013-12-30,79,72,68,73,69,65,97,90,77,30.13,29.97,5,1,0,0.00
2013-12-31,78,72,67,68,65,62,88,77,63,30.21,30.09,18,3,0,0.00
2014-1-1,81,76,72,74,70,65,93,84,74,30.18,30.03,9,2,0,0.01
2014-1-2,86,76,67,72,69,66,97,81,56,30.03,29.85,8,1,0,0.01